Regional Weather Roundup
Issued by NWS

Home | Current Version | Previous Version | Graphics & Text | Print | Product List | Glossary Off
Versions: 1 2 3 4 5 6 7 8 9 10 11 12 13 14 15 16 17 18 19 20 21 22 23 24 25 26 27 28 29 30 31 32 33 34 35 36 37 38 39 40 41 42 43 44 45 46 47 48 49 50

000
ASUS43 KMKX 270900
RWRWI

WISCONSIN REGIONAL WEATHER ROUNDUP
NATIONAL WEATHER SERVICE MILWAUKEE/SULLIVAN WI
300 AM CST THU NOV 27 2014

NOTE: "FAIR" INDICATES FEW OR NO CLOUDS BELOW 12,000 FEET WITH NO
SIGNIFICANT WEATHER AND/OR OBSTRUCTIONS TO VISIBILITY.

WIZ001-002-006>008-014>016-023>028-271000-
NORTHWEST WISCONSIN

CITY           SKY/WX    TMP DP  RH WIND       PRES   REMARKS
SUPERIOR ARPT  FAIR      -1  -7  77 NW7       30.48R WCI -15
ASHLAND        CLOUDY     5   1  83 W6        30.41S WCI  -6
HAYWARD        PTCLDY     0  -4  83 NW3       30.38R
SIREN          CLEAR      1  -5  75 N5        30.44S WCI  -9
CUMBERLAND     CLEAR      1  -6  71 N9        30.38R WCI -14
RICE LAKE      CLEAR      4  -2  75 NW6       30.40R WCI  -7
CHETEK         CLEAR      5  -1  77 NW7       30.38R WCI  -7
LADYSMITH      PTCLDY     8   3  83 NW8       30.34S WCI  -5
EAU CLAIRE     NOT AVBL
MENOMONIE      CLEAR      9   1  69 NW12      30.40R WCI  -6
NEW RICHMOND   CLEAR      4  -3  71 N10       30.42S WCI -11
OSCEOLA        CLEAR      4  -3  72 NW9       30.47R WCI -10
$$

WIZ003>005-009-010-017-018-271000-
NORTH CENTRAL WISCONSIN

CITY           SKY/WX    TMP DP  RH WIND       PRES   REMARKS
MANITOWISH WTR CLOUDY    10   7  86 N3        30.25R
ARBOR VITAE    LGT SNOW  11   8  87 N5        30.24R WCI   3
WOODRUFF       LGT SNOW  11   8  87 N5        30.24R WCI   3
RHINELANDER    FLURRIES  12   7  80 N6        30.23R WCI   3
EAGLE RIVER    FLURRIES  11   6  79 N5        30.23R WCI   3
LAND O LAKES   LGT SNOW   9   6  89 N5        30.24R WCI   0
PHILLIPS       CLOUDY     9   4  82 NW8       30.28R WCI  -3
TOMAHAWK       LGT SNOW  12   9  87 CALM      30.25R
MEDFORD        CLOUDY    12   8  82 NW9       30.26R WCI   0
MERRILL        LGT SNOW  15  12  86 NW8       30.25R WCI   4
$$

WIZ029-030-035-036-043>047-271000-
CENTRAL WISCONSIN

CITY           SKY/WX    TMP DP  RH WIND       PRES   REMARKS
WAUSAU         FLURRIES  16  11  80 NW6       30.24R WCI   7
MOSINEE        FLURRIES  18  16  93 NW12      30.25R WCI   5
MARSHFIELD     CLOUDY    16  11  80 NW12      30.27R WCI   3
STEVENS POINT  FLURRIES  17  13  86 NW5       30.26R WCI   9
WAUPACA        CLOUDY    24  19  81 NW8       30.25R WCI  15
WAUTOMA        NOT AVBL
WISC RAPIDS    CLOUDY    18  11  74 NW9       30.29R WCI   7
CAMP DOUGLAS   LGT SNOW  21  21 100 NW8       30.29R FOG     WCI  12
$$

WIZ011>013-019>022-031-037>040-048>050-271000-
NORTHEAST WISCONSIN

CITY           SKY/WX    TMP DP  RH WIND       PRES   REMARKS
ANTIGO         CLOUDY    16  11  81 N10       30.21R WCI   3
SHAWANO        CLOUDY    25  20  82 NW3       30.24R
OCONTO         CLOUDY    23  18  81 N7        30.22S WCI  14
STURGEON BAY   CLOUDY    25  19  80 N15       30.20S WCI  12
GREEN BAY      LGT SNOW  24  20  84 N9        30.23R FOG     WCI  14
MANITOWOC      NOT AVBL
APPLETON       CLOUDY    23  21  93 NW8       30.23R WCI  14
CLINTONVILLE   CLOUDY    23  18  80 NW6       30.23S WCI  16
OSHKOSH        CLOUDY    23  18  81 MISG      30.23R
$$

WIZ032>034-041-042-053>061-271000-
SOUTHWEST WISCONSIN

CITY           SKY/WX    TMP DP  RH WIND       PRES   REMARKS
LA CROSSE      CLOUDY    20  13  74 N8        30.35R WCI  10
SPARTA         CLOUDY    20  16  83 NW7       30.32R WCI  11
VIROQUA        CLOUDY    21  17  85 NW8       30.27R WCI  12
BOSCOBEL       LGT SNOW  25  18  74 NW6       30.32R WCI  18
PRAIRIE DU CHI CLOUDY    25  19  77 NW12      30.33R WCI  14
PLATTEVILLE    CLOUDY    24  20  85 NW5       30.29R WCI  18
$$

WIZ056-057-062-063-064-067-068-271000-
SOUTH CENTRAL WISCONSIN

CITY           SKY/WX    TMP DP  RH WIND       PRES   REMARKS
REEDSBURG      FLURRIES  23  19  85 NW7       30.27R WCI  15
BARABOO/DELLS  CLOUDY    23  19  87 NW6       30.26R WCI  15
LONE ROCK      NOT AVBL
MINERAL POINT  CLOUDY    27  21  80 NW9       30.26R WCI  17
MADISON        CLOUDY    23  19  85 NW8       30.26R WCI  14
MIDDLETON      CLOUDY    23  21  91 NW6       30.26R WCI  16
WATERTOWN      CLOUDY    21  20  98 NW3       30.23S FOG
MONROE         CLOUDY    21  19  93 NW7       30.24R WCI  13
JANESVILLE     LGT SNOW  21  21 100 NW7       30.24S WCI  13
$$

WIZ051-052-058>065-066-070>072-271000-
SOUTHEAST WISCONSIN

CITY           SKY/WX    TMP DP  RH WIND       PRES   REMARKS
MILWAUKEE      CLOUDY    24  18  77 NW9       30.22R WCI  14
WAUKESHA       LGT SNOW  19  18  93 NW12      30.22S WCI   7
MILWAUKEE/TIMM CLOUDY    23  19  86 NW9       30.23R WCI  13
RACINE         CLOUDY    21  16  81 W6        30.23R WCI  13
BURLINGTON     MOCLDY    19  17  90 NW12      30.22R WCI   7
KENOSHA        CLOUDY    20  17  88 NW10      30.22R FOG     WCI   9
FOND DU LAC    CLOUDY    22  18  85 NW9       30.23R WCI  12
SHEBOYGAN      LGT SNOW  22  19  89 NW6       30.21S FOG     WCI  14
WEST BEND      LGT SNOW  23  19  86 NW6       30.21S WCI  16
JUNEAU         LGT SNOW  21  19  92 NW6       30.24R WCI  14
$$

LSZ147-162-271000-
LAKE SUPERIOR

STATION/POSITION TIME  TEMP    WIND        PRES    WAVE
                       AIR SEA DIR/SP/G            HT/PER
                 (UTC) (F)     (DEG/KT/KT) (MB)    (FT/S)
DEVILS ISLAND    0800    9      10/ 17/ 19 1031.2R
PORT WING        0800    9     350/ 12/ 16 1030.1
SAXON HARBOR     0800   15     330/ 15/ 20 1028.4R
$$

LMZ867-665-643>646-271000-
LAKE MICHIGAN

STATION/POSITION TIME  TEMP    WIND        PRES    WAVE
                       AIR SEA DIR/SP/G            HT/PER
                 (UTC) (F)     (DEG/KT/KT) (MB)    (FT/S)
CHAMBERS ISLAND  0800   26     330/ 19/ 23 1022.4S
N MID LAKE BUOY  0750   29 42  350/ 23/ 27 1021.9F   1/ 3
NORTHPORT PIER   0804   28     360/ 20     1022.4R
ALGOMA LAKESHORE 0658          320/  8/ 10   N/A
KEWAUNEE LAKESHO 0800   24     310/  5/  7 1021.6R
SHEBOYGAN LAKESH 0800   23 35  290/  9/ 11 1024.2R
PORT WASHINGTON  0800   23     300/  7/ 13 1024.0R
MILWAUKEE LAKESH 0800   24     310/ 10/ 13   N/A
S MID LAKE BUOY  0750   32 42  320/ 17/ 21 1022.3R   4/ 6
KENOSHA   LAKESH 0800   21     310/ 12/ 15 1022.7R
$$

TC  - TEMPERATURE IN CELSIUS
VSB - VISIBILITY IN STATUTE MILES
WCI - WIND CHILL INDEX
HX  - HEAT INDEX




USA.gov is the U.S. government's official web portal to all federal, state and local government web resources and services.